Flag for Algeria Weather past 2 weeks in Constantine, Algeria

Now
54 °F

Clear.


Feels Like: 54 °F
Forecast: 50 / 64 °F
Wind: No wind

Location: Constantine Airport

Current Time: Oct 22, 2014 at 4:39:31 AM

Latest Report: Oct 22, 2014 at 3:00 AM


Visibility: 10 mi

Pressure: 30.15 "Hg

Humidity: 58%

Dew point: 39 °F

Location of ConstantineLocation

Historic Weather in Constantine — Graph

°F

Constantine temperature yesterday

Maximum temperature yesterday: 82 °F (at 2:00 PM)
Minimum temperature yesterday: 50 °F (at 6:30 AM)
Average temperature yesterday: 66 °F

Past Weeks' High & Low Weather Summary

 TemperatureHumidityPressure
High95 °F (Oct 10, 2:00 PM)100% (Oct 14, 6:00 AM)30.33 "Hg (Oct 14, 6:00 AM)
Low50 °F (Oct 16, 6:30 AM)14% (Oct 10, 4:00 PM)29.77 "Hg (Oct 14, 4:00 PM)
Average71 °F47%30.12 "Hg
* Reported Oct 7 3:00 AM — Oct 22 3:00 AM, Constantine, Weather by CustomWeather, © 2014

Note: Actual official high and low records may vary slightly from our data, if they occured in-between our weather recording intervals... More about our weather records

Advertising

Constantine weather history for previous 24 hours

 ConditionsComfort  
Time TempWeatherWind HumidityBarometerVisibility
3:00 AM
Oct 22
54 °FClear.No wind58%30.15 "Hg10 mi
2:30 AM54 °FClear.No wind54%30.18 "Hg10 mi
1:30 AM55 °FClear.No wind51%30.18 "Hg10 mi
12:30 AM57 °FClear.6 mph51%30.18 "Hg10 mi
12:00 AM57 °FClear.No wind48%30.18 "Hg10 mi
11:30 PM
Oct 21
61 °FClear.No wind48%30.18 "Hg10 mi
11:00 PM59 °FClear.No wind48%30.21 "Hg10 mi
10:30 PM61 °FClear.No wind48%30.21 "Hg10 mi
10:00 PM61 °FClear.No wind52%30.21 "Hg10 mi
9:30 PM61 °FClear.6 mph52%30.21 "Hg10 mi
9:00 PM63 °FClear.No wind52%30.21 "Hg10 mi
8:30 PM64 °FClear.8 mph52%30.21 "Hg10 mi
8:00 PM64 °FClear.8 mph46%30.21 "Hg10 mi
7:30 PM63 °FClear.8 mph49%30.18 "Hg10 mi
7:00 PM68 °FClear.8 mph40%30.18 "Hg10 mi
6:30 PM70 °FClear.8 mph40%30.18 "Hg10 mi
6:00 PM73 °FClear.12 mph33%30.18 "Hg10 mi
5:30 PM75 °FSunny.12 mph31%30.15 "Hg10 mi
5:00 PM79 °FSunny.9 mph30%30.15 "Hg10 mi
4:30 PM79 °FSunny.9 mph26%30.15 "Hg10 mi
4:00 PM81 °FSunny.12 mph24%30.15 "Hg10 mi
3:30 PM82 °FSunny.12 mph23%30.15 "Hg10 mi
3:00 PM82 °FSunny.12 mph23%30.15 "Hg10 mi
2:30 PM82 °FSunny.14 mph23%30.15 "Hg10 mi
2:00 PM82 °FSunny.12 mph23%30.15 "Hg10 mi
1:30 PM81 °FSunny.9 mph26%30.18 "Hg10 mi
1:00 PM81 °FSunny.9 mph24%30.18 "Hg10 mi
12:30 PM79 °FSunny.10 mph24%30.21 "Hg10 mi
12:00 PM79 °FSunny.10 mph24%30.21 "Hg10 mi
11:30 AM77 °FSunny.7 mph24%30.24 "Hg10 mi
11:00 AM75 °FSunny.6 mph34%30.24 "Hg10 mi
10:30 AM73 °FSunny.No wind38%30.21 "Hg10 mi
10:00 AM68 °FSunny.2 mph46%30.21 "Hg10 mi
9:30 AM64 °FSunny.3 mph49%30.21 "Hg10 mi
9:00 AM63 °FSunny.2 mph56%30.21 "Hg10 mi
8:30 AM61 °FSunny.No wind59%30.18 "Hg10 mi
8:00 AM59 °FSunny.No wind63%30.18 "Hg10 mi
7:30 AM54 °FSunny.No wind67%30.18 "Hg10 mi
7:00 AM52 °FSunny.No wind72%30.18 "Hg10 mi
6:30 AM50 °FClear.No wind71%30.15 "Hg10 mi
6:00 AM52 °FClear.No wind72%30.15 "Hg10 mi
5:30 AM54 °FClear.No wind67%30.18 "Hg10 mi
5:00 AM54 °FClear.No wind67%30.18 "Hg10 mi
4:30 AM55 °FClear.No wind63%30.18 "Hg10 mi
4:00 AM55 °FClear.No wind63%30.18 "Hg10 mi
Weather by CustomWeather, © 2014

See weather overviewHow to use our weather pages